STARLINK-1210, 45207

Orbit data source: Space-Track

STARLINK-1210, 45207 is a payload satellite owned by SpaceX/Seattle (US) in LEO that was launched on Mon, 17 Feb 2020 UTC via an FALCON 9 launch vehicle from the Air Force Eastern Test Range (AFETR). Payload-class satellites include a variety of spacecraft equipped with specific instruments for various scientific and technological missions. These include communications satellites like Starlink; space stations such as the ISS; scientific satellites like the Hubble; Earth observation satellites from companies like Planet Labs, Umbra, and HawkEye 360; GPS; miniature CubeSats for education and research; and military/defense satellites.

Loading next visibility...
Identifier
45207, 2020-012AF
Orbit
LEO
Country
Flag of USUS
Related business
Manufacturer
SpaceX/Seattle
Mission
Partially operational Commercial Communications
Bus & Motor
STARLINK, Unknown motor
Mass
260 kg wet, ~248 kg dry
Launch date (UTC)
2020-02-17 (6 years ago)
Launch vehicle
FALCON 9
Launch site
Air Force Eastern Test Range (AFETR)
Object type
Payload
Rocket body
Debris
Shape & HBR
Box + 1 Pan, 4.4 m
Radar Cross Section
13.562 m², Large (>1 m²)

Expand to show TLE details & history
Last TLE update: 11 hours ago

TLE from 11 hours ago
0 STARLINK-1210
1 45207U 20012AF  25260.91668981  .00052804  00000-0  10592-2 0  9994
2 45207  53.0283  36.0108 0010648 241.6997 306.1084 15.46146567  5952
Epoch: 2025-09-17T22:00Z
TLE epoch observation values (Epoch: 2025-09-17T22:00:01.999Z)
Latitude
-6.27028°
Longitude
-106.36527°
Altitude
425.664 km
Speed
7.659 km/s
True Right ascension
14h 42m 54s
True Declination
-6° 13' 52"
Sunlit
Object was in daylight at epoch
Visualization orbit readout
Latitude
Unknown
Longitude
Unknown
Altitude
Unknown
Speed
Unknown
Apparent Right ascension
Unknown
Apparent Declination
Unknown
Sunlit
N/A
Visualization observer readout
Local Sidereal Time
01:22:15
Azimuth
Unknown
Elevation
Unknown
Doppler factor
Unknown
Orbital elements
Apogee altitude
435.538 km
Perigee altitude
421.043 km
Semi-major axis
6,806.428 km
Eccentricity
0.00106
Inclination
53.0283°
RAAN
36.0108°
Arg. of periapsis
241.6997°
True anomaly
306.00974°
Mean anomaly
306.1084°
Eccentric anomaly
306.05908°
Mean motion
3.86513 °/min
Orbital period
93.14 mins
BSTAR
0.0010592
Loading maneuver chart data...
Computing Atmospheric mass density...

Documentation

Showing up to 5 results
|